CAPE
680 383 226 15 2 2 0 0 0 0 0 0 0 0 0 0 0 0 0 0 0 0 0 0 0 0 0 0 0 0 0 0 1 0 0 0 0 0 0 0 0 0 0
293 18 8 2 3 1 1 0 0 0 0 0 0 0 0 0 0 0 0 0 0 0 0 0 0 0 0 0 0 0 0 0 0 0 0 0 0 0 0 0 0 0 0
73 2 2 3 4 2 0 0 0 0 0 0 0 0 0 0 0 0 0 0 0 0 0 1 0 0 0 0 0 0 0 0 0 1 2 0 0 0 0 0 0 0 0
5 8 3 4 1 0 0 0 0 0 0 0 0 0 0 0 0 0 0 0 0 0 0 1 0 0 0 0 0 0 0 0 0 0 0 0 0 0 0 0 0 0 0
3 4 6 3 0 0 0 0 0 0 0 0 0 0 0 0 0 0 0 0 0 0 0 0 0 0 0 0 0 0 0 0 0 0 0 0 0 0 0 0 1 0 0
3 5 1 0 0 0 0 0 0 0 0 0 0 0 0 0 0 0 0 0 0 0 0 0 0 0 0 0 0 0 0 0 0 0 0 0 0 0 0 0 1 2 3
5 6 0 0 0 0 0 0 0 0 0 0 0 0 0 0 0 0 0 0 0 0 0 0 0 0 0 0 0 0 0 0 0 0 0 0 0 0 0 0 1 2 3
5 1 0 0 0 0 0 0 0 0 0 0 0 0 0 0 0 0 0 0 0 0 0 0 0 0 0 0 0 0 0 0 0 0 0 0 0 0 0 0 0 0 0
2 0 0 0 0 0 0 0 0 0 0 0 0 0 0 0 0 0 0 0 0 0 0 0 0 0 0 0 0 0 0 0 0 0 0 0 0 0 0 1 1 3 5
0 0 0 0 0 0 0 0 0 0 0 0 0 0 0 0 0 0 0 0 0 0 0 0 0 0 0 0 0 0 0 0 0 0 0 0 0 0 0 0 1 3 3
0 0 0 0 0 0 0 0 0 0 0 0 0 0 0 0 0 0 0 0 0 0 0 0 0 0 0 0 0 0 0 0 0 0 0 0 0 0 0 0 0 1 2
0 0 0 0 0 0 0 0 0 0 0 0 0 0 0 0 0 0 0 0 0 0 0 0 0 0 0 0 0 0 0 0 0 0 0 0 0 0 0 0 0 0 1
0 0 0 0 0 0 0 0 0 0 0 0 0 0 0 0 0 0 0 0 0 0 0 0 0 0 0 0 0 0 0 0 0 0 0 0 0 0 0 0 0 0 0
0 0 0 0 0 0 0 0 0 0 0 0 0 0 0 0 0 0 0 0 0 0 0 0 0 0 0 0 0 0 0 0 0 0 0 0 0 0 0 0 0 0 1
0 0 0 0 0 0 0 0 0 0 0 0 0 0 0 0 0 0 0 0 0 0 0 0 0 0 0 0 0 0 0 0 0 0 0 0 0 0 0 0 0 0 2
0 0 0 0 0 0 0 0 0 0 0 0 0 0 0 0 0 0 0 0 0 0 0 0 0 0 0 0 0 0 0 0 0 0 0 0 1 1 1 0 0 1 2
0 0 0 0 0 0 0 0 0 0 0 0 0 0 0 0 0 0 0 0 0 0 0 0 0 0 0 0 0 0 0 0 0 0 0 0 0 1 1 0 0 1 2
0 0 0 0 0 0 0 0 0 0 0 0 0 0 0 0 0 0 0 0 0 0 0 0 0 0 0 0 0 0 0 0 0 0 0 0 0 1 2 1 1 2 2
0 0 0 0 0 0 0 0 0 0 0 0 0 0 0 0 0 0 0 0 0 0 0 0 0 0 0 0 0 0 0 0 0 0 0 1 0 1 1 1 1 1 1
0 0 0 0 0 0 0 0 0 0 0 0 0 0 0 0 0 0 0 0 0 0 0 0 0 0 0 0 0 0 0 0 0 0 0 0 1 1 2 1 1 2 2
0 0 0 0 0 0 0 0 0 0 0 0 0 0 0 0 0 0 0 0 0 0 0 0 0 0 0 0 0 0 0 0 0 0 0 0 0 0 0 1 1 1 1
0 0 0 0 0 0 0 0 0 0 0 0 0 0 0 0 0 0 0 0 0 0 0 0 0 0 0 0 0 0 0 0 0 0 0 0 0 0 0 0 1 1 1
0 0 0 0 0 0 0 0 0 0 0 0 0 0 0 0 0 0 0 0 0 0 0 0 0 0 0 0 0 0 0 0 0 0 0 0 0 0 0 0 0 1 1
0 0 0 0 0 0 0 0 0 0 0 0 0 0 0 0 0 0 0 0 0 0 0 0 0 0 0 0 0 0 0 0 0 0 0 0 0 0 0 0 0 0 0
0 0 0 0 0 0 0 0 0 0 0 0 0 0 0 0 0 0 0 0 0 0 0 0 0 0 0 0 0 0 0 0 0 0 0 0 0 0 0 0 0 0 0
0 0 0 0 0 0 0 0 0 0 0 0 0 0 0 0 0 0 0 0 0 0 0 0 0 0 0 0 0 0 0 0 0 0 0 0 0 0 0 0 0 0 0
CIN
-224 -273 -282 -331 -0 -0 -0 -0 -0 -0 -0 -0 -0 -0 -0 -0 -0 -0 -0 -0 -0 -0 -0 -0 -0 -0 -0 -0 -0 -0 -0 -0 -0 -0 -0 -0 -0 -0 -0 -0 -0 -0 -0
-305 -369 -145 -0 -0 -0 -0 -0 -0 -0 -0 -0 -0 -0 -0 -0 -0 -0 -0 -0 -0 -0 -0 -0 -0 -0 -0 -0 -0 -0 -0 -0 -0 -0 -0 -0 -0 -0 -0 -0 -0 -0 -0
-361 -25 -32 -0 -0 -0 -0 -0 -0 -0 -0 -0 -0 -0 -0 -0 -0 -0 -0 -0 -0 -0 -0 -0 -0 -0 -0 -0 -0 -0 -0 -0 -0 -0 -0 -0 -0 -0 -0 -0 -0 -0 -0
-229 -205 -0 -0 -0 -0 -0 -0 -0 -0 -0 -0 -0 -0 -0 -0 -0 -0 -0 -0 -0 -0 -0 -0 -0 -0 -0 -0 -0 -0 -0 -0 -0 -0 -0 -0 -0 -0 -0 -0 -0 -0 -0
-0 -0 -0 -0 -0 -0 -0 -0 -0 -0 -0 -0 -0 -0 -0 -0 -0 -0 -0 -0 -0 -0 -0 -0 -0 -0 -0 -0 -0 -0 -0 -0 -0 -0 -0 -0 -0 -0 -0 -0 -0 -0 -0
-0 -0 -0 -0 -0 -0 -0 -0 -0 -0 -0 -0 -0 -0 -0 -0 -0 -0 -0 -0 -0 -0 -0 -0 -0 -0 -0 -0 -0 -0 -0 -0 -0 -0 -0 -0 -0 -0 -0 -0 -0 -0 -0
-0 -0 -0 -0 -0 -0 -0 -0 -0 -0 -0 -0 -0 -0 -0 -0 -0 -0 -0 -0 -0 -0 -0 -0 -0 -0 -0 -0 -0 -0 -0 -0 -0 -0 -0 -0 -0 -0 -0 -0 -0 -0 -0
-0 -0 -0 -0 -0 -0 -0 -0 -0 -0 -0 -0 -0 -0 -0 -0 -0 -0 -0 -0 -0 -0 -0 -0 -0 -0 -0 -0 -0 -0 -0 -0 -0 -0 -0 -0 -0 -0 -0 -0 -0 -0 -0
-0 -0 -0 -0 -0 -0 -0 -0 -0 -0 -0 -0 -0 -0 -0 -0 -0 -0 -0 -0 -0 -0 -0 -0 -0 -0 -0 -0 -0 -0 -0 -0 -0 -0 -0 -0 -0 -0 -0 -0 -0 -0 -0
-0 -0 -0 -0 -0 -0 -0 -0 -0 -0 -0 -0 -0 -0 -0 -0 -0 -0 -0 -0 -0 -0 -0 -0 -0 -0 -0 -0 -0 -0 -0 -0 -0 -0 -0 -0 -0 -0 -0 -0 -0 -0 -0
-0 -0 -0 -0 -0 -0 -0 -0 -0 -0 -0 -0 -0 -0 -0 -0 -0 -0 -0 -0 -0 -0 -0 -0 -0 -0 -0 -0 -0 -0 -0 -0 -0 -0 -0 -0 -0 -0 -0 -0 -0 -0 -0
-0 -0 -0 -0 -0 -0 -0 -0 -0 -0 -0 -0 -0 -0 -0 -0 -0 -0 -0 -0 -0 -0 -0 -0 -0 -0 -0 -0 -0 -0 -0 -0 -0 -0 -0 -0 -0 -0 -0 -0 -0 -0 -0
-0 -0 -0 -0 -0 -0 -0 -0 -0 -0 -0 -0 -0 -0 -0 -0 -0 -0 -0 -0 -0 -0 -0 -0 -0 -0 -0 -0 -0 -0 -0 -0 -0 -0 -0 -0 -0 -0 -0 -0 -0 -0 -0
-0 -0 -0 -0 -0 -0 -0 -0 -0 -0 -0 -0 -0 -0 -0 -0 -0 -0 -0 -0 -0 -0 -0 -0 -0 -0 -0 -0 -0 -0 -0 -0 -0 -0 -0 -0 -0 -0 -0 -0 -0 -0 -0
-0 -0 -0 -0 -0 -0 -0 -0 -0 -0 -0 -0 -0 -0 -0 -0 -0 -0 -0 -0 -0 -0 -0 -0 -0 -0 -0 -0 -0 -0 -0 -0 -0 -0 -0 -0 -0 -0 -0 -0 -0 -0 -0
-0 -0 -0 -0 -0 -0 -0 -0 -0 -0 -0 -0 -0 -0 -0 -0 -0 -0 -0 -0 -0 -0 -0 -0 -0 -0 -0 -0 -0 -0 -0 -0 -0 -0 -0 -0 -0 -0 -0 -0 -0 -0 -0
-0 -0 -0 -0 -0 -0 -0 -0 -0 -0 -0 -0 -0 -0 -0 -0 -0 -0 -0 -0 -0 -0 -0 -0 -0 -0 -0 -0 -0 -0 -0 -0 -0 -0 -0 -0 -0 -0 -0 -0 -0 -0 -0
-0 -0 -0 -0 -0 -0 -0 -0 -0 -0 -0 -0 -0 -0 -0 -0 -0 -0 -0 -0 -0 -0 -0 -0 -0 -0 -0 -0 -0 -0 -0 -0 -0 -0 -0 -0 -0 -0 -0 -0 -0 -0 -0
-0 -0 -0 -0 -0 -0 -0 -0 -0 -0 -0 -0 -0 -0 -0 -0 -0 -0 -0 -0 -0 -0 -0 -0 -0 -0 -0 -0 -0 -0 -0 -0 -0 -0 -0 -0 -0 -0 -0 -0 -0 -0 -0
-0 -0 -0 -0 -0 -0 -0 -0 -0 -0 -0 -0 -0 -0 -0 -0 -0 -0 -0 -0 -0 -0 -0 -0 -0 -0 -0 -0 -0 -0 -0 -0 -0 -0 -0 -0 -0 -0 -0 -0 -0 -0 -0
-0 -0 -0 -0 -0 -0 -0 -0 -0 -0 -0 -0 -0 -0 -0 -0 -0 -0 -0 -0 -0 -0 -0 -0 -0 -0 -0 -0 -0 -0 -0 -0 -0 -0 -0 -0 -0 -0 -0 -0 -0 -0 -0
-0 -0 -0 -0 -0 -0 -0 -0 -0 -0 -0 -0 -0 -0 -0 -0 -0 -0 -0 -0 -0 -0 -0 -0 -0 -0 -0 -0 -0 -0 -0 -0 -0 -0 -0 -0 -0 -0 -0 -0 -0 -0 -0
-0 -0 -0 -0 -0 -0 -0 -0 -0 -0 -0 -0 -0 -0 -0 -0 -0 -0 -0 -0 -0 -0 -0 -0 -0 -0 -0 -0 -0 -0 -0 -0 -0 -0 -0 -0 -0 -0 -0 -0 -0 -0 -0
-0 -0 -0 -0 -0 -0 -0 -0 -0 -0 -0 -0 -0 -0 -0 -0 -0 -0 -0 -0 -0 -0 -0 -0 -0 -0 -0 -0 -0 -0 -0 -0 -0 -0 -0 -0 -0 -0 -0 -0 -0 -0 -0
-0 -0 -0 -0 -0 -0 -0 -0 -0 -0 -0 -0 -0 -0 -0 -0 -0 -0 -0 -0 -0 -0 -0 -0 -0 -0 -0 -0 -0 -0 -0 -0 -0 -0 -0 -0 -0 -0 -0 -0 -0 -0 -0
-0 -0 -0 -0 -0 -0 -0 -0 -0 -0 -0 -0 -0 -0 -0 -0 -0 -0 -0 -0 -0 -0 -0 -0 -0 -0 -0 -0 -0 -0 -0 -0 -0 -0 -0 -0 -0 -0 -0 -0 -0 -0 -0
Wind_Speed
16 12 10 8 5 4 3 2 3 5 5 8 9 12 16 18 20 22 24 25 26 28 30 31 31 30 31 33 34 34 35 37 41 43 43 41 39 41 39 39 40 40 40
14 12 9 7 5 4 4 3 6 5 7 8 11 14 17 19 21 23 25 27 30 31 31 30 30 30 33 35 35 37 38 38 40 43 41 41 41 41 41 44 42 40 41
13 10 8 6 6 5 4 3 3 5 7 10 12 15 18 21 23 25 27 28 29 29 30 30 31 33 35 36 36 38 38 37 36 37 40 41 41 41 44 42 43 43 41
13 11 8 7 6 5 3 1 3 5 7 11 14 17 19 22 25 26 26 27 28 29 29 30 32 34 35 36 35 35 35 35 36 36 39 40 42 42 43 46 48 44 47
14 11 8 6 5 4 2 2 4 6 9 12 15 18 21 24 25 26 26 27 29 29 30 29 31 33 34 34 33 34 34 35 36 37 39 38 41 44 45 45 45 47 45
14 11 9 7 6 5 5 6 4 7 10 13 17 19 22 25 26 26 25 26 28 29 30 31 31 32 35 34 33 33 34 35 35 35 34 35 32 28 32 44 45 45 43
14 10 9 8 7 6 6 6 7 8 11 15 18 21 23 25 26 26 26 26 27 28 29 30 31 32 33 33 33 35 36 36 35 32 31 28 27 27 28 40 40 40 38
13 12 10 9 7 7 8 7 7 9 13 16 19 21 23 24 25 26 26 26 27 28 29 30 31 33 34 34 35 36 36 36 36 34 30 24 19 13 13 13 14 13 32
13 12 10 9 9 8 7 8 9 11 15 18 20 21 22 23 25 25 26 26 27 29 30 31 32 33 35 35 37 37 37 36 36 32 16 14 16 14 12 15 18 15 42
12 11 9 9 10 9 8 9 10 13 16 18 20 22 23 23 25 25 26 26 27 28 31 32 34 34 35 36 36 36 38 38 30 21 32 29 26 26 27 28 23 23 27
12 12 10 9 9 10 9 10 12 14 16 18 20 21 23 24 25 26 26 26 28 29 30 32 33 34 35 36 36 37 37 37 39 35 34 33 33 32 29 29 27 23 18
12 11 9 8 8 9 10 11 13 15 16 17 18 21 22 24 25 26 27 28 28 29 30 31 32 34 35 36 37 38 38 38 39 40 39 40 41 39 31 29 24 18 14
12 12 10 9 8 8 10 11 13 15 16 16 18 20 22 23 24 26 27 28 29 29 29 30 33 34 36 35 37 39 39 40 40 41 42 42 42 34 26 29 27 23 17
13 11 10 9 8 8 11 13 14 14 15 17 18 20 21 23 24 25 26 28 28 28 29 31 32 34 35 36 37 39 39 40 41 41 42 41 40 40 39 33 26 18 25
12 11 9 7 9 11 12 13 13 15 16 17 18 20 22 23 24 24 26 27 27 28 29 31 33 34 36 38 39 39 40 41 42 42 42 43 44 45 45 38 34 27 18
10 9 10 11 11 11 12 13 15 16 18 19 19 20 22 22 23 25 26 28 28 28 29 32 34 35 37 38 40 40 41 43 43 42 42 44 45 46 46 46 46 48 31
15 14 13 11 11 12 13 14 15 16 19 20 21 21 22 23 23 24 26 27 28 29 30 32 34 35 37 38 39 40 42 42 42 42 43 44 44 46 46 47 46 48 47
14 13 13 13 13 14 14 14 15 16 17 19 21 21 23 24 24 24 25 26 27 29 30 32 34 35 37 38 39 40 41 42 43 43 44 44 45 46 47 47 47 42 31
14 14 14 15 14 14 14 14 15 15 17 18 20 22 22 23 25 25 25 26 27 28 30 32 33 35 36 38 39 40 40 42 43 43 44 45 45 46 47 47 47 42 30
15 16 15 15 15 15 14 14 14 15 16 18 19 20 21 22 24 25 25 26 26 27 29 31 33 35 36 38 39 40 41 42 43 43 44 45 45 45 46 47 46 44 34
15 15 15 15 15 14 14 15 15 15 16 17 19 20 21 22 23 24 25 26 27 27 29 31 33 35 36 38 39 40 40 41 43 43 44 45 45 46 46 46 46 44 37
15 14 13 13 13 14 15 15 15 16 16 17 18 19 21 22 22 24 25 26 27 27 28 31 33 34 36 37 38 39 40 41 42 43 44 44 45 45 45 46 45 43 39
14 14 13 13 13 14 14 14 14 15 15 16 17 19 20 21 22 24 25 26 27 27 29 31 33 34 35 35 36 37 38 40 41 41 43 43 44 45 45 45 44 44 41
14 13 13 13 13 13 13 13 14 14 15 16 17 18 19 21 23 24 25 26 27 28 29 31 33 34 34 35 35 36 37 38 39 40 41 42 43 44 44 44 43 42 40
14 14 14 14 13 13 13 14 14 14 15 15 16 17 19 21 23 24 25 27 28 29 30 31 32 33 33 34 35 37 38 39 39 40 40 40 42 43 43 42 42 42 40
13 13 13 13 13 12 13 13 14 14 15 15 16 17 19 21 23 24 26 28 29 30 30 31 32 33 33 33 34 36 38 39 40 41 39 40 41 42 42 42 41 40 40
Wind_Direction
223 224 227 232 224 220 219 130 239 97 31 23 17 14 5 3 2 360 356 353 351 349 347 346 345 346 345 344 342 341 338 335 329 327 328 330 331 329 329 329 327 326 325
212 218 224 225 221 195 176 122 99 49 23 21 13 8 6 3 359 356 353 351 348 348 349 350 349 348 346 344 342 339 337 335 331 329 332 332 330 330 328 326 326 325 324
195 199 201 190 183 172 169 140 77 61 29 10 11 6 3 360 357 356 354 353 353 353 353 353 351 347 344 343 342 340 340 340 340 337 334 335 333 332 328 327 326 325 325
184 181 172 171 161 162 156 129 48 17 13 11 7 5 3 359 356 357 357 355 355 354 355 354 352 349 348 347 346 347 349 349 348 344 341 339 337 335 331 327 323 327 322
176 173 171 153 147 147 142 76 35 20 14 11 8 4 0 358 357 357 356 356 356 357 358 359 357 356 356 355 355 355 355 355 354 352 349 349 345 339 332 330 328 326 328
162 159 147 139 137 118 93 74 47 18 15 10 5 3 359 1 359 359 360 0 0 0 359 359 1 1 359 358 1 1 0 359 358 358 357 355 358 0 358 339 332 329 330
153 153 151 131 117 105 84 63 45 26 14 6 4 2 1 360 0 2 2 3 3 3 3 4 4 4 4 5 3 358 359 359 1 3 4 5 4 4 2 351 348 343 343
154 150 140 125 109 96 79 62 40 19 9 7 5 4 3 3 4 4 6 8 9 9 10 8 8 7 7 7 1 358 2 3 3 5 9 12 12 352 358 353 332 334 353
145 142 139 121 104 92 75 60 40 26 14 11 8 9 10 6 4 8 11 14 17 17 16 15 13 11 8 6 1 1 4 6 8 13 21 18 18 9 359 6 5 358 344
139 132 120 107 97 90 77 57 35 25 19 17 16 14 12 10 11 15 19 21 21 18 18 15 11 10 8 6 8 6 4 7 20 24 17 21 22 22 21 19 17 13 11
124 117 106 97 91 85 74 52 35 28 25 23 22 15 14 15 17 17 21 23 22 19 17 15 13 12 10 7 8 4 4 3 345 13 16 19 19 20 23 21 19 18 14
119 108 99 89 83 77 67 48 33 31 29 26 19 17 17 18 18 22 23 24 25 23 21 19 16 12 9 7 7 3 1 360 359 357 7 9 10 14 21 20 20 16 15
107 98 92 84 72 62 56 41 33 30 27 23 20 20 20 20 24 23 24 25 26 26 24 19 14 11 7 12 10 1 2 1 359 356 357 0 1 17 22 22 21 22 20
101 94 87 79 66 47 41 38 36 32 28 26 26 25 22 23 23 23 25 26 26 23 18 16 16 12 10 8 8 6 5 359 356 356 359 3 9 11 16 21 21 348 22
91 83 76 65 61 54 41 39 41 32 34 34 29 27 27 24 22 28 28 25 26 23 19 14 11 8 6 6 6 7 7 5 1 2 3 1 3 2 6 18 20 331 343
86 77 72 69 62 55 54 45 33 39 38 33 31 34 28 29 31 32 30 26 24 20 18 13 8 7 5 4 3 4 4 2 2 4 4 1 359 356 352 358 360 359 330
83 81 75 67 64 63 58 55 50 34 32 33 36 33 29 31 34 33 29 25 21 19 17 13 8 6 5 5 4 4 1 2 3 4 2 4 4 2 360 358 345 351 346
73 72 70 68 67 64 59 53 49 43 40 31 26 30 30 32 31 29 26 22 19 18 16 12 8 7 5 4 4 2 2 1 0 1 1 3 1 1 356 359 351 337 330
72 69 67 65 63 61 54 50 48 44 37 35 33 31 31 29 27 25 24 22 20 17 14 12 11 8 6 6 6 5 4 2 1 1 360 359 359 358 356 358 357 337 331
70 74 67 61 59 58 52 50 47 43 38 35 32 30 29 26 22 20 20 20 19 18 15 12 10 8 7 6 6 5 3 0 358 358 357 358 358 357 352 350 349 341 330
74 73 72 63 58 55 50 50 47 41 38 34 32 31 29 26 24 21 18 15 14 15 13 10 8 8 7 7 6 5 3 1 358 357 357 356 357 354 355 357 351 343 331
72 71 67 64 58 52 48 47 46 42 40 38 33 27 23 21 21 18 16 13 13 15 12 9 8 8 8 7 7 5 3 360 358 357 356 357 357 356 354 352 349 340 335
62 59 57 59 59 55 48 44 44 41 38 35 30 22 19 17 17 15 13 12 11 11 10 7 6 5 7 7 8 6 3 360 358 357 354 353 353 351 352 346 343 342 337
58 56 57 57 56 50 46 43 38 35 33 30 26 23 18 15 12 11 11 9 8 8 7 5 5 4 6 6 6 5 4 1 0 358 354 353 351 348 347 345 342 338 336
54 53 57 58 54 50 46 41 39 35 29 26 25 22 17 14 11 9 8 6 6 5 5 4 5 5 5 3 3 1 360 358 357 355 354 352 348 345 344 342 337 336 335
56 55 54 50 47 45 41 38 34 30 27 24 22 20 16 11 8 6 4 3 4 4 4 4 4 3 2 3 3 360 358 356 354 352 353 350 346 344 342 339 334 334 333